Overview Statistics Trail Chart Weather Telemetry Raw packets
 

This is the latest recevied weather packets stored in our database for station/object W0AKY-13. If no packets are shown the sender has not sent any weather packets the latest 10 day(s).

<< 31 32 33 34 35 36 37 >>
Time Temp. Humidity Pressure Rain* Wind** Luminosity Snow
1788399497 30° C 61% 1012.2 hPa 0 mm - 0 W/m² -
1788399196 30° C 60% 1012.2 hPa 0 mm - 0 W/m² -
1788398895 30° C 60% 1012.1 hPa 0 mm - 0 W/m² -
1788398590 30.56° C 60% 1012.2 hPa 0 mm - 0 W/m² -
1788398289 30.56° C 60% 1012.1 hPa 0 mm - 0 W/m² -
1788397988 30.56° C 60% 1012.1 hPa 0 mm - 0 W/m² -
1788397684 30.56° C 61% 1012.3 hPa 0 mm - 0 W/m² -
1788397380 30.56° C 60% 1012.1 hPa 0 mm - 1 W/m² -
1788397078 30.56° C 59% 1012.1 hPa 0 mm - 1 W/m² -
1788396773 31.11° C 58% 1012.1 hPa 0 mm - 2 W/m² -
1788396468 31.11° C 58% 1012.1 hPa 0 mm - 3 W/m² -
1788396171 31.11° C 57% 1012.1 hPa 0 mm - 5 W/m² -
1788395859 31.67° C 59% 1012.2 hPa 0 mm - 7 W/m² -
1788395554 31.67° C 55% 1012.2 hPa 0 mm - 9 W/m² -
1788395249 32.22° C 55% 1012.2 hPa 0 mm - 11 W/m² -
1788394943 32.22° C 54% 1012.1 hPa 0 mm - 13 W/m² -
1788394639 32.78° C 53% 1012.1 hPa 0 mm - 15 W/m² -
1788394339 32.78° C 52% 1012.2 hPa 0 mm - 17 W/m² -
1788394034 32.78° C 52% 1012.3 hPa 0 mm - 19 W/m² -
1788393733 33.33° C 52% 1012.3 hPa 0 mm - 21 W/m² -
1788393432 33.33° C 50% 1012.3 hPa 0 mm - 23 W/m² -
1788393128 33.33° C 52% 1011.9 hPa 0 mm - 25 W/m² -
1788392827 33.89° C 51% 1012.1 hPa 0 mm - 26 W/m² -
1788392526 33.89° C 52% 1012 hPa 0 mm - 28 W/m² -
1788392221 34.44° C 50% 1012 hPa 0 mm - 30 W/m² -

* Rain latest hour (hover to see other rain measurements)
** Current wind speed in m/s (hover to see current wind gust speed)